This is the latest recevied weather packets stored in our database for station/object F4ETJ-1. If no packets are shown the sender has not sent any weather packets the latest 10 day(s).
| Time | Temp. | Humidity | Pressure | Rain* | Wind** | Luminosity | Snow |
|---|---|---|---|---|---|---|---|
| 1777581334 | 13.33° C | 94% | 1017.3 hPa | 0.25 mm | - | - | - |
| 1777580973 | 13.33° C | 94% | 1017.3 hPa | 0.25 mm | - | - | - |
| 1777580613 | 13.33° C | 94% | 1017.1 hPa | 0.25 mm | - | - | - |
| 1777580613 | 13.33° C | 94% | 1017.1 hPa | 0.25 mm | - | - | - |
| 1777580253 | 13.89° C | 94% | 1017.1 hPa | 0.25 mm | - | - | - |
| 1777579892 | 13.89° C | 94% | 1017.1 hPa | 0.25 mm | - | - | - |
| 1777579532 | 13.89° C | 94% | 1017.2 hPa | 0.25 mm | - | - | - |
| 1777579172 | 13.89° C | 94% | 1016.9 hPa | 0.25 mm | - | - | - |
| 1777578811 | 13.89° C | 94% | 1016.8 hPa | 0.25 mm | - | - | - |
| 1777578451 | 13.89° C | 94% | 1016.9 hPa | 0.25 mm | - | - | - |
| 1777578091 | 13.89° C | 94% | 1016.8 hPa | 0 mm | - | - | - |
| 1777577730 | 13.89° C | 94% | 1016.9 hPa | 0 mm | - | - | - |
| 1777577370 | 13.89° C | 94% | 1016.9 hPa | 0 mm | - | - | - |
| 1777577010 | 13.89° C | 94% | 1017 hPa | 0 mm | - | - | - |
| 1777576649 | 13.89° C | 94% | 1016.9 hPa | 0 mm | - | - | - |
| 1777576289 | 13.89° C | 94% | 1016.9 hPa | 0 mm | - | - | - |
| 1777575929 | 13.89° C | 94% | 1016.9 hPa | 0 mm | - | - | - |
| 1777575568 | 13.89° C | 94% | 1016.8 hPa | 0.25 mm | - | - | - |
| 1777575208 | 13.89° C | 94% | 1016.6 hPa | 0.25 mm | - | - | - |
| 1777574848 | 13.89° C | 94% | 1016.6 hPa | 0.25 mm | - | - | - |
| 1777574487 | 13.89° C | 94% | 1016.5 hPa | 0.51 mm | - | - | - |
| 1777574127 | 13.89° C | 93% | 1016.5 hPa | 0.76 mm | - | - | - |
| 1777573767 | 13.89° C | 93% | 1016.3 hPa | 2.03 mm | - | - | - |
| 1777573406 | 13.89° C | 93% | 1016.2 hPa | 2.54 mm | - | - | - |
| 1777573048 | 13.89° C | 93% | 1016.1 hPa | 2.54 mm | - | - | - |
* Rain latest hour (hover to see other rain measurements)
** Current wind speed in m/s (hover to see current wind gust speed)